Temp
-12 -12 -12 -10 -10 -11 -11 -11 -11 -11 -11 -12 -11 -11 -12 -11 -11 -10 -10 -9 -9 -9 -9 -9 -8 -8 -8 -8 -8 -8 -9 -8 -8 -8 -8 -8 -8 -8 -9 -9 -8 -8 -8 -8 -8 -8 -7 -9 -9 -9 -9 -9 -10 -10
-12 -12 -11 -11 -11 -11 -11 -12 -11 -11 -12 -12 -12 -11 -11 -11 -11 -10 -10 -9 -9 -9 -9 -9 -9 -9 -9 -8 -8 -8 -8 -8 -8 -7 -7 -8 -9 -8 -9 -8 -9 -9 -8 -9 -9 -9 -9 -9 -9 -9 -9 -10 -10 -10
-12 -11 -11 -11 -12 -12 -12 -12 -12 -12 -12 -12 -11 -11 -12 -11 -11 -10 -10 -9 -9 -9 -9 -9 -9 -9 -8 -8 -7 -8 -8 -7 -7 -7 -7 -8 -9 -9 -8 -9 -9 -9 -9 -9 -9 -9 -9 -9 -9 -9 -9 -9 -10 -10
-12 -11 -11 -12 -12 -12 -12 -12 -12 -13 -12 -12 -12 -11 -11 -10 -11 -10 -9 -10 -9 -9 -9 -10 -9 -9 -8 -8 -7 -7 -7 -7 -7 -7 -7 -7 -8 -8 -9 -8 -9 -9 -8 -8 -9 -9 -9 -10 -9 -9 -9 -9 -9 -9
-11 -11 -11 -11 -12 -12 -12 -12 -12 -12 -12 -12 -12 -11 -11 -10 -10 -10 -10 -10 -9 -9 -9 -10 -9 -9 -8 -8 -8 -7 -7 -7 -7 -8 -7 -7 -7 -7 -8 -8 -8 -8 -8 -9 -9 -9 -9 -9 -9 -9 -9 -9 -9 -9
-11 -11 -11 -11 -12 -12 -12 -12 -12 -12 -11 -11 -11 -11 -10 -10 -10 -10 -10 -10 -10 -9 -8 -10 -9 -9 -9 -8 -8 -8 -8 -8 -8 -8 -8 -8 -8 -8 -8 -8 -8 -8 -8 -8 -9 -9 -9 -9 -9 -9 -9 -9 -9 -9
-11 -11 -12 -12 -12 -12 -12 -12 -12 -11 -11 -11 -11 -10 -10 -10 -10 -10 -10 -10 -10 -9 -9 -9 -10 -9 -9 -9 -9 -8 -8 -8 -8 -8 -8 -8 -8 -8 -8 -8 -8 -8 -8 -9 -9 -9 -9 -9 -9 -9 -9 -9 -8 -8
-11 -12 -12 -12 -12 -12 -12 -12 -11 -12 -12 -11 -11 -10 -10 -10 -10 -10 -9 -9 -9 -10 -9 -8 -9 -9 -9 -9 -9 -9 -9 -8 -8 -8 -8 -8 -9 -9 -8 -8 -8 -9 -9 -9 -9 -9 -9 -9 -9 -9 -9 -9 -8 -8
-11 -12 -12 -12 -12 -12 -12 -11 -12 -12 -11 -11 -11 -11 -10 -10 -10 -10 -10 -9 -10 -9 -8 -8 -8 -10 -9 -9 -9 -9 -9 -9 -9 -9 -10 -10 -10 -10 -9 -9 -9 -9 -9 -9 -9 -10 -10 -9 -9 -9 -9 -8 -9 -9
-12 -12 -12 -12 -12 -12 -12 -12 -12 -12 -11 -11 -11 -11 -11 -10 -9 -10 -10 -10 -10 -9 -9 -8 -8 -8 -9 -9 -9 -9 -9 -10 -11 -10 -10 -10 -11 -10 -10 -10 -10 -10 -9 -9 -10 -10 -10 -9 -9 -9 -9 -9 -9 -9
-12 -12 -12 -13 -12 -12 -13 -12 -12 -12 -11 -11 -10 -10 -10 -10 -10 -10 -10 -10 -10 -9 -9 -9 -9 -9 -10 -10 -9 -10 -10 -10 -11 -11 -11 -11 -11 -10 -10 -10 -10 -10 -9 -9 -10 -10 -10 -10 -10 -9 -9 -9 -9 -9
-12 -13 -13 -12 -12 -13 -13 -13 -12 -12 -11 -11 -10 -10 -10 -10 -9 -9 -9 -9 -10 -9 -10 -9 -9 -9 -10 -10 -10 -10 -10 -10 -10 -11 -11 -11 -9 -9 -9 -10 -10 -10 -10 -10 -10 -10 -10 -10 -10 -9 -9 -9 -9 -9
-12 -12 -13 -13 -13 -13 -13 -13 -12 -12 -12 -11 -11 -10 -10 -10 -9 -10 -10 -10 -9 -10 -10 -10 -10 -10 -10 -10 -10 -10 -10 -10 -10 -10 -10 -10 -10 -9 -9 -9 -10 -10 -10 -10 -10 -10 -10 -10 -9 -9 -9 -9 -10 -10
-13 -13 -13 -13 -13 -14 -13 -13 -12 -12 -12 -12 -11 -10 -10 -10 -10 -10 -9 -9 -9 -10 -10 -10 -10 -10 -10 -10 -10 -10 -10 -10 -10 -10 -9 -9 -9 -9 -9 -9 -10 -10 -10 -10 -10 -10 -10 -10 -10 -9 -9 -10 -10 -10
-13 -13 -13 -14 -14 -14 -14 -13 -13 -12 -11 -11 -10 -11 -11 -11 -11 -10 -10 -10 -10 -10 -10 -10 -10 -10 -10 -10 -10 -10 -10 -10 -10 -10 -9 -9 -9 -9 -9 -9 -10 -10 -10 -10 -10 -10 -10 -10 -10 -10 -10 -10 -10 -10
-13 -13 -14 -14 -14 -14 -14 -13 -13 -12 -11 -11 -11 -12 -12 -12 -12 -11 -11 -11 -10 -11 -11 -11 -10 -10 -10 -10 -10 -10 -10 -10 -9 -9 -9 -9 -9 -9 -9 -9 -9 -9 -9 -9 -9 -9 -10 -10 -10 -10 -10 -10 -11 -11
-13 -12 -14 -14 -14 -14 -14 -13 -12 -11 -12 -12 -13 -12 -12 -12 -12 -11 -11 -11 -11 -11 -11 -10 -10 -10 -10 -10 -9 -10 -10 -9 -9 -9 -9 -9 -9 -9 -9 -9 -9 -9 -9 -9 -9 -10 -10 -10 -10 -10 -11 -11 -11 -11
-13 -13 -14 -14 -14 -13 -13 -13 -12 -12 -12 -12 -13 -12 -12 -11 -11 -11 -11 -11 -11 -11 -11 -10 -10 -10 -10 -10 -10 -10 -9 -9 -9 -9 -9 -9 -9 -9 -9 -9 -9 -9 -9 -10 -10 -10 -10 -10 -11 -11 -11 -11 -11 -11
-13 -13 -14 -14 -14 -13 -13 -13 -12 -13 -12 -12 -12 -12 -11 -11 -11 -10 -10 -10 -10 -10 -10 -10 -10 -10 -10 -10 -9 -9 -9 -9 -9 -9 -9 -9 -9 -9 -9 -9 -9 -10 -10 -10 -10 -11 -10 -11 -11 -11 -11 -11 -11 -12
-14 -14 -13 -13 -13 -13 -13 -13 -13 -13 -12 -12 -12 -11 -11 -11 -11 -10 -10 -10 -10 -10 -10 -10 -10 -10 -10 -10 -10 -10 -9 -9 -9 -9 -9 -9 -9 -9 -9 -9 -10 -10 -10 -10 -11 -11 -11 -11 -11 -11 -12 -12 -12 -12
-14 -13 -13 -13 -14 -13 -13 -13 -13 -12 -12 -12 -12 -11 -11 -11 -11 -11 -11 -10 -10 -10 -10 -10 -10 -10 -10 -10 -10 -10 -10 -9 -9 -9 -9 -9 -9 -9 -9 -10 -10 -10 -11 -11 -11 -11 -11 -11 -12 -12 -12 -12 -13 -13
-13 -14 -14 -14 -14 -13 -13 -13 -13 -13 -12 -12 -12 -12 -11 -11 -11 -11 -10 -10 -10 -10 -10 -10 -10 -10 -10 -10 -10 -9 -9 -9 -9 -9 -9 -9 -9 -10 -10 -10 -10 -10 -11 -11 -11 -11 -12 -12 -12 -12 -13 -13 -13 -14
-14 -14 -14 -14 -14 -14 -14 -13 -13 -13 -13 -12 -12 -11 -11 -11 -11 -11 -10 -10 -10 -10 -10 -10 -10 -9 -9 -9 -9 -9 -9 -9 -9 -9 -9 -9 -9 -10 -10 -10 -10 -10 -11 -11 -12 -12 -12 -13 -13 -13 -13 -14 -14 -15
-14 -14 -14 -14 -14 -14 -14 -13 -13 -13 -13 -12 -12 -12 -11 -11 -11 -11 -10 -10 -10 -10 -10 -10 -9 -9 -9 -9 -9 -9 -9 -9 -9 -9 -9 -9 -10 -10 -10 -10 -10 -11 -11 -11 -12 -13 -13 -13 -14 -14 -14 -15 -15 -15
-15 -15 -14 -14 -14 -14 -14 -14 -13 -13 -12 -12 -12 -12 -12 -11 -11 -11 -11 -10 -10 -10 -10 -10 -9 -9 -9 -9 -9 -9 -9 -9 -9 -9 -9 -10 -10 -10 -10 -11 -11 -11 -12 -12 -13 -13 -14 -14 -14 -15 -15 -15 -16 -16
-14 -14 -14 -14 -14 -14 -14 -13 -13 -13 -13 -12 -12 -12 -12 -12 -11 -11 -11 -11 -10 -10 -10 -10 -9 -9 -9 -9 -9 -9 -9 -9 -9 -9 -9 -10 -10 -11 -11 -11 -11 -12 -13 -13 -14 -14 -14 -15 -15 -15 -16 -16 -16 -16
-14 -14 -14 -14 -14 -14 -14 -13 -13 -13 -13 -12 -12 -12 -12 -12 -11 -11 -11 -11 -11 -11 -10 -10 -10 -9 -9 -9 -9 -9 -9 -9 -9 -10 -10 -10 -11 -11 -11 -12 -12 -12 -13 -14 -14 -15 -15 -16 -16 -16 -16 -16 -17 -17
-14 -14 -14 -14 -14 -14 -14 -13 -13 -12 -12 -12 -12 -12 -12 -12 -12 -12 -11 -12 -12 -11 -11 -11 -10 -10 -10 -10 -9 -9 -9 -9 -9 -10 -10 -11 -11 -12 -12 -13 -13 -13 -14 -14 -15 -15 -16 -16 -17 -17 -17 -17 -17 -18
-14 -14 -14 -14 -14 -14 -13 -13 -13 -13 -13 -12 -12 -12 -12 -12 -12 -12 -12 -12 -12 -12 -11 -11 -11 -11 -10 -10 -10 -10 -10 -10 -10 -10 -11 -11 -12 -12 -13 -13 -14 -14 -14 -15 -15 -16 -16 -17 -17 -17 -17 -18 -18 -18
-14 -14 -14 -13 -13 -13 -13 -13 -13 -13 -13 -12 -13 -12 -12 -12 -12 -12 -12 -12 -12 -12 -12 -11 -11 -11 -11 -11 -11 -11 -10 -11 -11 -11 -11 -12 -12 -13 -13 -14 -14 -15 -15 -16 -16 -16 -17 -18 -17 -18 -18 -18 -19 -19
-14 -14 -14 -13 -13 -13 -13 -13 -13 -13 -13 -12 -13 -13 -12 -12 -12 -12 -12 -12 -12 -12 -11 -11 -11 -11 -11 -11 -11 -11 -11 -11 -11 -11 -12 -12 -13 -14 -14 -15 -15 -16 -16 -16 -17 -17 -18 -18 -18 -18 -18 -19 -19 -20
-14 -14 -14 -14 -13 -13 -13 -13 -13 -13 -13 -13 -12 -12 -12 -12 -12 -12 -11 -11 -11 -11 -11 -11 -11 -11 -11 -11 -11 -11 -11 -12 -12 -12 -13 -13 -14 -14 -15 -15 -16 -17 -17 -17 -17 -18 -18 -18 -18 -18 -19 -19 -20 -20
-14 -14 -14 -14 -14 -13 -13 -14 -13 -13 -13 -13 -13 -13 -12 -12 -12 -11 -11 -11 -12 -11 -11 -11 -11 -11 -11 -11 -11 -12 -12 -12 -13 -13 -14 -14 -15 -15 -16 -16 -17 -17 -17 -18 -18 -19 -18 -18 -19 -19 -19 -20 -20 -20
Height
2837 2840 2842 2843 2848 2854 2860 2865 2870 2874 2878 2882 2887 2892 2898 2904 2910 2915 2922 2926 2929 2933 2935 2939 2942 2946 2948 2950 2951 2953 2957 2958 2960 2963 2965 2965 2968 2970 2971 2972 2975 2977 2979 2979 2980 2980 2980 2978 2977 2978 2975 2972 2969 2967
2835 2838 2841 2845 2850 2856 2861 2865 2869 2874 2878 2883 2887 2893 2899 2905 2909 2916 2921 2924 2928 2933 2935 2939 2943 2945 2947 2948 2950 2952 2954 2955 2958 2960 2962 2963 2965 2967 2969 2972 2973 2977 2976 2977 2978 2977 2977 2976 2975 2973 2971 2970 2969 2967
2834 2837 2840 2846 2852 2857 2862 2866 2870 2873 2878 2884 2890 2895 2900 2905 2911 2917 2920 2924 2930 2933 2937 2941 2942 2945 2946 2947 2950 2953 2954 2955 2957 2959 2960 2962 2965 2967 2970 2971 2971 2972 2973 2974 2977 2976 2975 2975 2974 2973 2972 2971 2970 2970
2832 2835 2842 2849 2854 2859 2863 2867 2871 2874 2879 2885 2891 2896 2901 2906 2912 2916 2921 2926 2931 2934 2936 2940 2942 2945 2947 2949 2951 2953 2955 2956 2958 2959 2961 2962 2964 2965 2967 2968 2971 2971 2972 2973 2974 2975 2975 2974 2974 2974 2973 2973 2972 2971
2831 2836 2844 2850 2856 2861 2865 2869 2873 2877 2881 2887 2892 2897 2901 2906 2912 2917 2922 2927 2931 2936 2935 2939 2943 2946 2948 2950 2953 2955 2956 2958 2959 2960 2961 2963 2963 2966 2966 2968 2968 2970 2971 2972 2973 2973 2974 2974 2974 2974 2974 2974 2974 2974
2829 2838 2846 2853 2858 2863 2868 2871 2875 2879 2884 2889 2894 2899 2903 2907 2912 2917 2922 2927 2931 2934 2936 2940 2944 2946 2949 2951 2954 2956 2957 2959 2960 2960 2961 2962 2963 2965 2966 2967 2968 2969 2969 2970 2971 2972 2973 2974 2974 2975 2975 2975 2976 2976
2833 2841 2848 2855 2860 2865 2870 2874 2878 2883 2887 2892 2896 2900 2904 2908 2913 2917 2921 2925 2930 2935 2938 2941 2944 2947 2950 2952 2954 2956 2957 2958 2959 2960 2960 2961 2963 2964 2964 2965 2967 2968 2968 2969 2970 2972 2973 2974 2975 2976 2976 2976 2977 2977
2837 2845 2852 2857 2862 2868 2872 2875 2880 2885 2890 2894 2898 2902 2905 2909 2915 2919 2922 2926 2930 2934 2938 2940 2943 2947 2950 2952 2954 2955 2956 2957 2958 2959 2960 2960 2961 2962 2963 2965 2966 2967 2968 2968 2970 2971 2973 2974 2975 2975 2976 2977 2977 2977
2841 2848 2854 2860 2865 2869 2874 2877 2882 2887 2892 2896 2899 2904 2908 2912 2916 2919 2924 2927 2931 2937 2937 2940 2942 2945 2948 2951 2953 2955 2955 2956 2957 2957 2957 2959 2958 2959 2960 2962 2964 2966 2967 2968 2968 2970 2972 2974 2975 2975 2976 2977 2978 2979
2846 2852 2857 2863 2867 2872 2875 2880 2884 2889 2894 2898 2903 2907 2910 2914 2917 2921 2927 2930 2933 2935 2937 2939 2941 2943 2948 2950 2952 2954 2954 2954 2955 2955 2955 2955 2955 2957 2958 2960 2961 2964 2966 2966 2968 2969 2971 2972 2973 2975 2976 2977 2978 2979
2850 2856 2861 2866 2870 2874 2878 2883 2887 2891 2896 2900 2904 2908 2912 2916 2920 2924 2927 2931 2933 2935 2937 2939 2941 2943 2947 2950 2951 2952 2952 2953 2954 2955 2954 2953 2951 2952 2955 2958 2960 2962 2964 2965 2966 2967 2970 2972 2974 2975 2976 2976 2977 2977
2855 2859 2865 2869 2872 2877 2881 2885 2889 2894 2898 2903 2907 2911 2914 2919 2922 2924 2926 2929 2931 2933 2934 2938 2941 2944 2946 2948 2950 2951 2951 2952 2953 2953 2952 2950 2948 2949 2952 2955 2958 2961 2962 2963 2964 2966 2969 2971 2973 2974 2975 2976 2977 2977
2859 2865 2868 2872 2876 2880 2884 2888 2891 2895 2900 2905 2910 2913 2917 2920 2921 2922 2923 2926 2928 2929 2933 2936 2940 2943 2946 2948 2949 2950 2950 2952 2952 2951 2950 2948 2948 2948 2950 2953 2956 2958 2960 2961 2963 2965 2967 2969 2971 2972 2974 2975 2976 2976
2865 2869 2872 2876 2879 2882 2886 2890 2894 2898 2903 2907 2911 2914 2916 2917 2918 2919 2921 2924 2927 2930 2933 2937 2940 2943 2944 2947 2948 2948 2950 2950 2950 2949 2948 2947 2947 2948 2949 2951 2953 2955 2957 2959 2961 2963 2965 2967 2969 2970 2972 2973 2975 2975
2869 2873 2876 2879 2882 2886 2890 2893 2897 2901 2905 2907 2910 2913 2914 2915 2917 2919 2922 2925 2929 2932 2935 2938 2941 2943 2944 2946 2946 2947 2948 2948 2948 2948 2947 2947 2947 2948 2949 2951 2952 2954 2956 2958 2960 2962 2964 2966 2968 2970 2971 2973 2974 2974
2872 2876 2880 2883 2886 2890 2893 2897 2901 2904 2906 2908 2910 2913 2915 2918 2920 2922 2925 2928 2931 2933 2936 2939 2941 2943 2944 2945 2945 2946 2947 2947 2947 2946 2945 2946 2947 2948 2949 2951 2952 2953 2955 2957 2959 2961 2963 2965 2967 2969 2971 2972 2973 2972
2878 2880 2883 2887 2891 2894 2897 2901 2904 2906 2907 2910 2913 2915 2917 2920 2922 2925 2927 2930 2932 2934 2936 2938 2940 2942 2943 2943 2944 2945 2946 2946 2946 2946 2945 2946 2947 2948 2949 2950 2952 2954 2956 2958 2959 2961 2962 2964 2966 2968 2970 2970 2970 2969
2884 2885 2888 2892 2895 2898 2901 2905 2906 2908 2910 2912 2915 2918 2920 2922 2925 2927 2929 2931 2933 2935 2937 2939 2940 2941 2942 2943 2944 2945 2945 2946 2946 2946 2946 2947 2947 2948 2949 2950 2952 2954 2955 2957 2958 2960 2962 2964 2966 2967 2967 2967 2967 2966
2888 2890 2893 2896 2899 2902 2904 2909 2910 2912 2914 2916 2918 2920 2922 2925 2926 2928 2930 2931 2933 2935 2937 2939 2940 2940 2942 2943 2944 2945 2946 2946 2946 2946 2947 2947 2948 2948 2949 2950 2951 2952 2953 2955 2957 2958 2960 2962 2964 2964 2964 2964 2964 2963
2891 2894 2897 2900 2903 2905 2908 2911 2913 2915 2917 2920 2921 2923 2925 2926 2928 2929 2930 2931 2933 2934 2936 2938 2939 2940 2942 2943 2944 2945 2946 2947 2947 2947 2947 2947 2948 2948 2948 2948 2949 2950 2951 2953 2955 2957 2958 2960 2961 2961 2961 2961 2960 2959
2895 2899 2901 2903 2906 2908 2909 2912 2914 2917 2919 2921 2923 2925 2927 2928 2928 2929 2930 2931 2932 2933 2934 2936 2938 2939 2941 2942 2943 2945 2946 2946 2946 2946 2946 2946 2946 2946 2946 2946 2946 2947 2948 2950 2952 2954 2956 2957 2958 2958 2958 2957 2956 2955
2899 2902 2904 2906 2908 2909 2911 2913 2916 2917 2921 2922 2924 2926 2927 2928 2928 2929 2930 2930 2930 2931 2932 2933 2935 2937 2939 2940 2942 2943 2944 2944 2945 2945 2945 2945 2944 2944 2944 2944 2944 2945 2946 2947 2948 2950 2952 2953 2954 2954 2954 2953 2952 2950
2902 2904 2906 2908 2910 2911 2914 2914 2917 2918 2921 2923 2925 2926 2927 2927 2927 2928 2927 2927 2928 2928 2929 2929 2931 2934 2936 2937 2939 2940 2941 2942 2942 2942 2942 2942 2941 2941 2941 2941 2942 2942 2943 2944 2946 2947 2949 2950 2950 2950 2949 2948 2947 2945
2905 2906 2908 2909 2910 2912 2913 2914 2917 2919 2921 2922 2924 2925 2926 2926 2926 2925 2924 2925 2926 2926 2926 2927 2929 2931 2932 2934 2935 2936 2937 2938 2938 2938 2938 2938 2938 2938 2938 2938 2938 2939 2939 2941 2942 2944 2944 2945 2945 2944 2944 2943 2941 2940
2908 2910 2910 2910 2911 2912 2913 2914 2916 2918 2920 2922 2923 2924 2924 2924 2924 2923 2922 2922 2922 2923 2923 2925 2926 2928 2929 2930 2931 2932 2933 2933 2933 2933 2933 2933 2934 2934 2934 2934 2935 2935 2936 2937 2938 2939 2940 2940 2940 2940 2939 2938 2936 2934
2907 2908 2909 2908 2910 2912 2913 2914 2915 2916 2919 2921 2922 2922 2923 2922 2922 2921 2921 2920 2919 2920 2921 2922 2923 2925 2926 2927 2927 2928 2928 2928 2928 2928 2928 2928 2928 2929 2930 2930 2931 2932 2933 2934 2935 2935 2936 2936 2936 2935 2934 2932 2930 2928
2906 2907 2908 2908 2909 2911 2912 2913 2914 2916 2917 2919 2919 2920 2921 2920 2920 2921 2920 2919 2919 2919 2919 2920 2921 2922 2922 2923 2924 2924 2924 2924 2923 2923 2923 2923 2924 2925 2926 2926 2927 2928 2929 2930 2930 2931 2931 2931 2931 2930 2929 2927 2925 2922
2904 2906 2907 2909 2909 2910 2911 2912 2913 2914 2915 2916 2918 2918 2919 2919 2920 2920 2918 2918 2918 2919 2919 2920 2920 2920 2920 2921 2921 2921 2920 2920 2919 2919 2919 2920 2920 2921 2922 2923 2923 2924 2925 2925 2926 2926 2926 2926 2926 2925 2924 2922 2920 2917
2903 2904 2906 2907 2908 2909 2910 2911 2912 2913 2914 2915 2916 2917 2917 2918 2918 2918 2918 2918 2918 2918 2918 2918 2918 2918 2918 2918 2918 2918 2918 2917 2917 2917 2916 2917 2917 2919 2919 2919 2920 2920 2921 2921 2921 2921 2921 2921 2921 2920 2919 2917 2914 2912
2900 2902 2903 2905 2906 2908 2909 2910 2910 2911 2912 2913 2914 2915 2915 2916 2916 2916 2916 2916 2917 2917 2917 2916 2916 2916 2916 2916 2915 2915 2915 2914 2914 2914 2914 2914 2914 2914 2915 2915 2915 2916 2916 2916 2917 2917 2917 2917 2916 2915 2914 2912 2909 2907
2897 2899 2900 2901 2902 2904 2905 2907 2907 2908 2909 2910 2911 2911 2912 2912 2912 2913 2913 2913 2913 2913 2913 2913 2913 2913 2912 2912 2912 2911 2911 2911 2911 2910 2910 2910 2910 2910 2910 2911 2911 2911 2911 2912 2912 2912 2912 2912 2912 2910 2909 2907 2905 2902
2892 2894 2895 2896 2898 2899 2900 2900 2901 2902 2903 2903 2904 2905 2906 2906 2906 2906 2907 2908 2908 2908 2908 2908 2907 2907 2907 2907 2906 2906 2906 2906 2906 2906 2905 2905 2905 2906 2906 2906 2906 2907 2907 2908 2908 2908 2908 2908 2907 2906 2904 2902 2900 2898
2888 2889 2890 2891 2892 2893 2894 2895 2895 2895 2896 2896 2896 2897 2897 2898 2897 2898 2899 2900 2901 2900 2900 2901 2901 2901 2901 2901 2900 2900 2900 2900 2900 2900 2900 2900 2901 2901 2901 2901 2902 2903 2903 2904 2904 2904 2904 2904 2903 2901 2900 2898 2896 2895
Wind_Speed
11 9 10 6 19 25 23 22 18 18 22 18 27 32 30 30 18 21 18 20 17 12 13 18 15 14 11 12 11 13 13 12 13 11 7 5 6 6 6 10 8 6 7 5 5 4 2 5 7 4 8 9 10 6
12 8 8 27 26 22 23 23 21 21 25 22 22 23 21 22 26 16 16 18 16 11 20 17 13 11 10 10 11 15 9 13 12 9 6 6 6 7 9 4 9 4 8 5 5 3 4 5 3 2 3 3 3 5
11 16 27 27 25 23 21 20 21 24 30 30 25 25 24 19 17 19 20 16 15 13 20 14 11 12 11 10 13 11 10 9 10 9 10 9 5 9 6 5 7 7 4 4 4 4 2 2 4 6 7 8 9 11
15 21 32 27 25 23 20 23 21 21 25 28 30 26 18 20 25 21 20 20 18 15 16 16 14 14 14 14 12 11 10 10 9 9 9 8 7 8 7 7 7 5 6 6 6 4 1 3 6 7 8 10 13 14
24 35 33 30 26 23 20 20 21 21 23 21 22 21 21 23 21 23 22 19 17 17 19 20 16 15 15 14 11 10 9 7 7 6 7 7 7 8 8 7 5 4 5 7 9 6 4 5 7 9 9 10 11 12
33 39 34 32 27 21 26 20 21 21 20 24 23 20 20 20 23 26 24 21 18 19 20 21 18 16 14 12 10 8 7 5 4 4 4 5 7 6 7 6 6 3 3 4 6 8 6 6 8 9 9 9 9 10
41 36 33 30 27 21 23 18 25 21 23 24 17 19 19 21 25 29 25 25 22 16 18 18 16 16 14 11 7 6 6 5 5 4 4 5 7 7 6 6 8 5 5 7 7 8 9 9 9 9 9 8 7 6
39 33 30 25 24 22 18 24 28 26 22 16 19 20 20 24 24 16 16 22 19 18 18 8 10 16 13 9 8 7 5 4 4 5 5 7 7 8 6 10 10 8 6 8 9 8 10 11 10 8 7 5 5 4
37 31 27 25 23 24 22 21 27 21 20 17 19 20 22 23 18 18 23 20 24 13 8 8 11 11 14 11 7 6 4 3 4 5 8 6 9 7 8 10 13 11 7 6 8 10 11 11 9 7 4 3 4 4
33 29 25 24 22 24 24 23 28 24 20 19 22 22 21 17 18 20 21 19 19 11 7 8 10 9 16 11 7 3 2 2 1 3 4 8 10 11 9 12 14 13 9 6 8 9 10 9 7 6 5 4 4 4
29 28 25 24 23 25 25 23 24 24 22 21 22 19 22 19 22 14 11 10 10 7 9 10 11 11 12 11 6 3 2 1 1 3 3 4 5 14 14 13 13 12 11 8 9 10 11 11 8 6 5 5 4 3
29 28 25 23 23 26 24 21 21 20 21 21 18 19 20 15 6 5 10 8 7 8 12 16 15 13 13 9 3 3 2 2 3 3 3 3 4 11 17 17 15 12 11 11 11 10 11 10 8 6 6 6 5 5
30 27 22 22 23 24 21 20 18 19 21 19 24 19 11 6 6 7 8 8 7 12 16 18 17 13 10 6 4 3 3 3 3 3 3 3 2 7 12 16 14 12 12 12 12 13 12 11 9 7 6 6 6 7
26 23 22 21 20 22 20 18 20 23 25 22 11 11 6 6 6 7 12 13 12 15 18 17 13 9 7 9 4 3 3 3 2 2 2 2 2 7 9 12 12 11 10 11 12 13 12 11 9 8 8 7 7 4
26 22 20 19 19 19 20 20 24 27 21 11 8 5 5 7 11 14 16 16 17 17 17 14 12 8 10 4 4 3 3 2 2 2 4 1 5 7 9 10 9 10 9 9 8 9 9 9 10 10 9 8 5 3
26 22 20 21 19 19 20 23 21 17 13 7 5 15 15 15 15 16 18 18 16 15 14 14 8 6 5 3 4 3 3 2 1 1 2 4 5 6 8 9 9 9 9 8 7 8 9 10 10 10 9 7 5 1
21 20 22 20 19 19 23 21 17 11 6 8 14 17 15 15 17 17 16 15 13 13 14 8 5 6 4 4 4 5 4 2 2 2 3 4 5 6 8 8 8 8 8 8 8 9 10 11 11 10 9 6 2 3
18 22 22 19 18 19 23 18 11 9 14 17 14 14 13 14 13 11 10 11 11 11 13 7 5 5 4 4 5 6 4 2 2 3 4 5 4 4 4 5 6 7 8 8 8 10 12 13 12 9 7 5 5 7
19 21 21 19 17 17 21 14 13 10 13 13 15 14 13 12 10 8 7 7 10 10 9 8 3 6 6 9 8 5 4 3 2 2 2 2 1 2 4 5 7 8 9 9 10 12 14 12 10 9 8 8 9 11
19 19 18 16 17 14 9 11 12 10 14 15 14 13 10 8 7 5 4 5 8 10 11 9 5 8 10 9 7 7 3 1 0 0 0 1 3 4 4 5 7 9 10 11 11 14 14 13 12 11 10 10 12 14
20 17 15 13 11 8 7 12 8 10 12 12 11 9 8 5 3 4 3 3 5 7 10 11 11 7 9 10 9 9 3 4 4 4 4 5 6 6 6 6 6 8 10 12 14 15 15 14 14 13 12 13 15 16
19 16 13 11 8 7 5 12 8 10 10 11 8 4 2 3 2 2 4 6 5 5 9 12 16 15 13 11 11 10 9 8 8 8 8 9 9 7 7 7 7 9 11 14 16 16 15 15 14 14 15 16 17 18
18 15 10 8 3 4 5 15 12 12 10 10 7 4 2 0 2 2 4 6 5 6 9 13 16 16 17 17 16 15 14 12 11 11 12 11 10 9 9 9 9 10 12 14 14 15 15 15 15 16 16 17 17 18
14 13 8 5 4 4 8 14 15 12 12 10 6 2 1 4 5 6 6 5 7 7 8 10 13 15 16 16 17 16 15 14 13 13 12 10 10 10 10 10 11 12 13 14 15 15 15 15 15 16 16 16 17 19
9 7 2 4 6 5 4 8 17 18 13 9 5 4 6 7 8 9 7 5 7 8 10 10 12 13 13 13 14 14 14 13 13 12 12 12 11 11 11 11 10 10 11 12 13 14 14 14 15 15 15 16 18 20
6 4 5 5 8 7 5 3 5 11 14 12 7 5 7 9 4 2 4 4 3 8 9 10 10 10 10 10 11 11 12 13 13 13 13 12 12 12 12 11 11 11 12 13 13 13 13 14 14 14 15 17 18 20
6 4 7 4 6 7 5 6 5 8 9 7 8 8 5 2 2 2 2 4 4 3 3 4 5 5 5 6 6 7 9 11 11 11 11 11 11 11 11 11 12 12 12 13 14 14 13 12 13 14 16 17 18 20
9 9 6 3 6 6 5 3 4 4 6 5 4 4 2 2 2 2 3 6 5 3 2 1 0 1 2 4 5 7 8 8 7 7 8 9 9 9 10 11 12 12 13 14 14 13 12 12 13 14 15 16 18 20
14 11 9 7 2 3 4 5 3 4 3 5 6 3 1 3 1 3 4 3 2 3 3 3 2 2 3 4 5 6 7 7 7 7 8 8 9 10 11 12 12 13 13 13 12 12 12 11 12 14 15 16 18 19
12 14 13 12 10 8 7 6 3 3 3 9 7 4 4 5 7 6 5 5 6 7 7 7 7 7 8 8 9 9 9 9 9 9 9 9 10 10 11 12 13 13 13 13 13 12 11 11 12 14 15 16 17 18
13 12 14 16 18 16 15 14 15 16 17 14 15 14 11 10 10 12 13 13 13 13 13 14 14 14 14 14 14 14 13 13 13 12 11 11 11 11 12 13 13 13 13 13 12 11 10 11 12 13 15 16 16 15
19 19 17 17 16 14 14 15 15 17 17 18 19 21 22 22 23 23 21 21 21 20 19 19 19 19 18 18 18 17 17 16 15 14 13 12 12 12 12 13 14 14 13 13 12 10 9 11 12 13 14 15 14 13
11 10 11 12 12 14 14 15 16 16 16 18 19 20 22 23 26 27 25 21 20 19 20 20 19 19 20 21 21 20 19 18 17 16 14 13 13 13 13 14 14 13 13 12 10 8 10 11 12 13 13 13 12 12
Wind_Direction
207 214 208 221 168 166 163 169 180 182 186 180 172 177 171 183 189 147 154 168 167 179 182 185 182 183 199 207 202 188 175 184 176 171 173 163 148 166 144 168 168 175 183 186 197 225 184 295 308 246 262 295 313 344
189 198 166 158 160 163 161 175 186 185 163 162 153 159 168 181 180 165 178 169 176 193 173 170 178 193 188 184 181 179 180 176 176 179 169 162 144 151 154 140 180 194 192 180 181 189 290 327 346 5 3 22 53 81
193 171 160 159 156 157 164 171 167 170 174 164 158 163 178 172 178 175 177 168 166 175 167 180 191 173 167 159 156 175 171 183 184 193 164 147 142 142 159 170 154 175 159 140 136 207 302 40 69 70 73 87 99 98
183 166 161 154 151 158 157 157 150 160 161 166 173 163 172 168 168 176 176 168 174 171 166 161 162 159 148 143 142 137 138 147 147 154 162 159 144 164 162 158 148 173 178 192 206 216 167 97 89 95 94 96 93 88
169 164 156 150 153 158 159 155 166 174 164 152 158 166 165 168 172 174 170 173 179 176 175 155 154 159 156 149 148 146 139 132 131 149 154 160 160 159 164 147 149 148 195 202 220 202 180 137 117 107 101 98 94 92
156 152 150 151 153 151 156 153 152 147 148 151 159 160 171 168 165 166 164 175 182 196 174 151 160 162 164 159 161 169 167 164 179 193 174 170 174 175 171 188 178 152 137 166 197 175 165 145 127 117 108 98 93 91
151 152 149 153 159 160 164 164 151 155 154 151 161 159 157 164 167 171 176 176 182 185 183 159 165 174 176 177 181 184 190 189 187 202 218 210 203 195 200 189 183 166 127 127 144 153 158 148 138 126 111 101 91 81
151 153 155 155 158 167 162 154 154 164 162 159 155 157 160 161 163 165 169 170 167 164 168 162 176 182 185 183 184 178 179 191 209 224 236 238 234 220 222 212 196 176 144 139 152 159 162 160 147 129 115 98 86 86
150 153 153 155 160 161 158 149 156 155 155 148 152 154 150 149 155 151 158 157 156 161 166 165 165 180 180 176 175 182 206 230 243 231 236 232 235 222 212 204 202 186 167 151 158 164 167 164 153 142 130 120 131 134
146 148 153 155 154 152 149 151 154 156 165 153 157 148 149 135 144 148 158 161 170 168 158 162 168 166 174 173 173 177 197 181 185 247 261 236 233 218 205 194 187 185 183 176 165 164 172 175 173 171 170 163 156 162
146 149 147 152 150 150 153 153 157 164 162 152 151 152 146 139 138 140 154 164 175 184 186 171 169 165 168 168 167 173 173 204 189 249 205 248 243 207 196 190 189 189 195 207 188 181 186 193 200 202 201 192 170 156
146 143 147 142 139 148 155 157 155 157 159 160 155 141 138 137 134 142 155 163 171 182 177 175 173 167 166 167 163 181 196 196 223 241 226 243 243 192 195 196 201 197 205 200 201 195 192 194 205 211 210 196 181 162
146 149 142 136 142 151 154 154 152 145 148 145 144 146 155 165 162 164 165 162 174 170 170 168 166 168 172 184 184 194 181 208 241 225 232 259 266 200 194 196 198 200 194 197 198 196 196 199 205 213 207 195 182 159
150 144 142 143 147 159 165 162 156 153 152 153 141 149 162 163 177 170 170 167 162 158 161 167 178 177 179 171 176 185 194 213 220 245 254 309 180 175 177 176 181 183 187 185 182 184 192 199 197 199 204 194 175 159
147 142 142 138 139 146 146 146 147 148 149 134 130 131 143 146 148 151 151 147 146 149 157 163 169 166 159 171 184 186 191 192 199 247 276 229 168 164 166 169 173 172 165 164 167 177 190 191 194 197 190 183 180 196
148 145 140 137 144 140 139 143 143 146 132 101 111 122 133 136 135 141 145 149 151 152 155 156 147 160 178 186 177 175 168 171 211 311 200 183 171 161 162 170 168 167 169 176 187 196 199 196 192 182 186 193 204 217
143 137 133 137 138 141 144 135 131 120 93 114 131 148 147 148 150 150 153 158 161 164 162 150 162 176 171 186 168 157 148 135 98 85 143 147 150 155 159 162 169 177 185 194 203 204 198 189 185 191 198 203 230 313
139 129 125 132 137 143 149 140 110 97 122 128 129 142 151 157 157 158 164 171 174 173 174 165 159 167 152 142 145 146 141 124 121 106 115 111 117 131 156 177 189 202 212 218 211 202 192 192 197 203 212 234 270 294
143 131 126 128 133 145 151 144 120 111 124 130 124 122 131 139 145 150 162 175 191 188 181 182 187 181 156 152 147 141 123 108 119 155 154 154 176 230 232 233 234 235 233 222 214 206 200 203 210 222 236 258 280 293
152 142 134 128 126 130 119 148 137 118 126 128 118 109 112 121 127 135 144 173 192 195 194 195 188 182 174 164 162 155 126 99 139 104 312 298 282 280 272 261 255 247 233 224 222 211 210 216 227 240 254 270 283 294
156 151 138 131 132 121 101 153 137 143 146 147 134 109 91 94 138 168 174 192 212 221 219 210 206 206 201 201 196 196 266 316 311 289 282 294 297 282 274 272 263 237 221 218 216 216 222 230 241 252 264 274 284 293
157 153 147 137 125 109 114 154 143 149 156 162 166 155 75 49 70 168 218 234 247 245 226 216 214 216 217 213 208 227 268 286 289 287 285 285 286 277 263 259 254 236 226 225 223 223 229 239 251 261 270 278 287 297
156 154 155 156 136 119 136 162 149 140 140 151 154 155 149 347 329 301 261 245 232 243 236 225 218 215 221 227 237 253 267 274 280 282 280 277 273 264 262 259 253 242 235 234 235 236 241 250 260 269 276 284 293 301
158 167 173 177 154 157 159 180 174 157 146 140 120 99 319 310 297 309 300 258 233 243 244 226 214 219 228 235 245 257 267 274 278 276 273 268 264 263 263 259 251 242 237 236 235 240 247 258 269 276 283 292 299 304
164 174 185 190 178 168 155 178 196 202 206 211 254 280 308 327 312 305 304 282 245 238 230 222 221 226 234 242 250 260 267 273 272 271 270 266 264 265 263 257 253 247 240 236 238 244 255 266 274 283 291 297 302 308
187 206 200 197 191 194 196 183 189 200 212 225 236 244 301 317 292 279 304 308 264 224 220 221 225 230 236 244 253 261 268 271 273 272 271 266 263 263 259 251 246 241 238 239 245 253 263 273 282 289 295 299 304 310
201 203 197 191 190 196 222 219 213 194 196 212 240 272 278 239 239 260 187 101 97 117 164 186 202 215 229 244 260 269 276 279 278 272 265 261 259 259 256 249 242 239 240 243 249 258 267 276 284 290 294 299 306 312
210 209 198 193 206 206 221 183 170 178 195 201 207 188 203 209 226 205 57 98 85 82 80 69 36 270 276 281 286 286 287 292 293 282 270 262 257 253 247 244 242 244 247 251 257 264 270 277 283 288 294 302 309 315
221 218 224 235 282 207 217 178 173 186 198 199 187 185 151 231 218 21 18 19 64 64 29 4 344 328 324 320 313 306 299 294 289 281 274 265 257 250 249 251 253 256 259 262 265 269 271 276 282 289 298 307 314 319
222 226 237 246 252 255 251 207 179 6 240 211 196 215 272 288 281 266 273 302 311 307 302 303 308 312 315 312 306 303 298 295 292 287 281 274 267 265 261 260 260 262 262 264 266 266 268 276 285 294 304 311 316 320
225 233 246 248 252 252 257 260 260 270 278 275 260 268 272 265 250 253 262 274 287 288 283 283 284 288 292 297 300 297 291 288 287 288 286 282 275 268 263 260 258 258 258 259 261 262 269 279 289 299 307 313 317 320
241 244 246 251 251 249 251 252 253 258 262 264 259 258 263 268 276 275 269 269 271 275 273 274 276 279 284 286 289 290 287 285 286 284 281 279 276 270 263 258 255 254 256 257 257 261 272 283 294 302 309 314 317 318
253 251 245 248 255 255 253 257 261 268 271 271 265 262 261 264 268 270 272 272 272 266 262 264 268 270 274 277 279 279 278 278 277 277 275 274 271 264 259 255 252 252 253 253 253 263 276 288 297 305 311 313 314 318